Skip Page Navigation
NASA JPL Caltech
NASA Logo - Jet Propulsion Laboratory + View the NASA Portal
+ Near-Earth Object (NEO) Program
Search JPL
JPL Home Earth Solar System Stars & Galaxies Technology
JPL Solar System Dynamics
BODIES ORBITS EPHEMERIDES TOOLS PHYSICAL DATA DISCOVERY FAQ SITE MAP
JPL Small-Body Database Browser
Search: [ help ]  
350523 (2000 EA14)
Classification: Apollo [NEO, PHA]          SPK-ID: 2350523
Ephemeris | Orbit Diagram | Orbital Elements | Physical Parameters | Discovery Circumstances | Close-Approach Data ]

[ hide orbit diagram ]
Orbit Diagram
Note: Make sure you have Java enabled on your browser to see the applet. This applet is provided as a 3D orbit visualization tool. The applet was implemented using 2-body methods, and hence should not be used for determining accurate long-term trajectories (over several years or decades) or planetary encounter circumstances. For accurate long-term ephemerides, please instead use our Horizons system.
Orbit Viewer

Additional Notes: the orbits shown in the applet are color coded. The planets are white lines, and the asteroid/comet is a blue line. The bright white line indicates the portion of the orbit that is above the ecliptic plane, and the darker portion is below the ecliptic plane. Likewise for the asteroid/comet orbit, the light blue indicates the portion above the ecliptic plane, and the dark blue the portion below the ecliptic plane.

Orbit Viewer applet originally written and kindly provided by Osamu Ajiki (AstroArts), and further modified by Ron Baalke (JPL).


Orbital Elements at Epoch 2456400.5 (2013-Apr-18.0) TDB
Reference: JPL 43 (heliocentric ecliptic J2000)
 Element Value Uncertainty (1-sigma)   Units 
e .2025301237936497 4.5199e-08  
a 1.116897765074595 2.0053e-09 AU
q .8906923224491863 5.1418e-08 AU
i 3.554694007681988 4.2986e-06 deg
node 203.890791934418 7.1112e-05 deg
peri 205.9547677533213 8.7418e-05 deg
M 132.8913795876625 4.5756e-05 deg
tp 2456241.347718423546
(2012-Nov-09.84771842)
5.4832e-05 JED
period 431.1402405882069
1.18
1.1611e-06
3.179e-09
d
yr
n .8349951271281245 2.2487e-09 deg/d
Q 1.343103207700003 2.4114e-09 AU
  Orbit Determination Parameters
   # obs. used (total)      145  
   data-arc span      4790 days (13.11 yr)  
   first obs. used      2000-03-03  
   last obs. used      2013-04-14  
   planetary ephem.      DE405  
   SB-pert. ephem.      SB405-CPV-2  
   condition code      0  
   fit RMS      .55394  
   data source      ORB  
   producer      Otto Matic  
   solution date      2013-Apr-29 15:37:19  

Additional Information
 Earth MOID = .0434696 AU 
 T_jup = 5.564 
[ show covariance matrix ]

Ephemeris | Orbit Diagram | Orbital Elements | Physical Parameters | Discovery Circumstances | Close-Approach Data ]

Physical Parameter Table
Parameter Symbol Value Units Sigma Reference Notes
absolute magnitude H 20.987 mag .59444 43 autocmod 2.5c

350523 (2000 EA14)          Discovered 2000-Mar-03 by CSS at Catalina (703)
Reference: 20130127/Numbers.arcLast Updated: 2013-01-31

[ show close-approach data ]
Ephemeris | Orbit Diagram | Orbital Elements | Physical Parameters | Discovery Circumstances | Close-Approach Data ]
ABOUT SSD CREDITS/AWARDS PRIVACY/COPYRIGHT GLOSSARY LINKS
FirstGov 2013-May-22 13:16 UT
(server date/time)  
NASA Home Page
Site Manager:   Donald K. Yeomans
Webmaster  Alan B. Chamberlin